Zurück zum Katalog

HELIOS 2A

AktivMilitärPO
NORAD 28492·PAYLOAD·🇫🇷 France

Gestartet Dec 18, 2004 von Guiana Space Centre

Loading…

Nächste Überflüge (nächste 24 Stunden)

TLE

AktuellSource: Space-Track

Epoche: Sep 14, 2026, 14:00 UTC

1 28492U 04049A   26257.58387202  .00001802  00000-0  13893-3 0  9997
2 28492  98.2474 317.0782 0003118  39.4776 320.6674 15.03031840167195

Verfolge HELIOS 2A in Echtzeit mit AllMySat

Download on the App Store